Ciudad Obregon, Mexico

9:42 AM MST on April 29, 2017 (GMT -0700)
Ciudad Obregon International

Weather History for MMCN - October, 2012

Change the Weather History Date:

Monday, October 1, 2012

  Actual Average Record
Temperature  
Mean Temperature 86 °F -  
Max Temperature 105 °F 95 °F 105 °F (2012)
Min Temperature 67 °F 74 °F 66 °F (2004)
Cooling Degree Days 21    
Growing Degree Days 36 (Base 50)    
Moisture  
Dew Point 71 °F    
Average Humidity 54    
Maximum Humidity 89    
Minimum Humidity 23    
Precipitation  
Precipitation 0.00 in - - ()
Sea Level Pressure  
Sea Level Pressure 29.73 in    
Wind  
Wind Speed 6 mph ()    
Max Wind Speed 20 mph    
Max Gust Speed -    
Visibility 10.4 miles    
Events      
Averages and records for this station are not official NWS values.
T = Trace of Precipitation, MM = Missing Value Source: Averaged Metar Reports

Daily Weather History Graph

Daily Weather History Graph

Search for Another Location

Airport or City:

Trip Planner

Search our weather history database for the weather conditions in past years. The results will help you decide how hot, cold, wet, or windy it might be!

Date:

Astronomy

Oct. 01, 2012 Rise Set
Actual Time 6:12 AM MST 6:04 PM MST
Civil Twilight 5:48 AM MST 6:28 PM MST
Nautical Twilight 5:21 AM MST 6:55 PM MST
Astronomical Twilight 4:54 AM MST 7:22 PM MST
Moon 6:58 PM MST (10/1) 7:32 AM MST (10/1)
Length of Visible Light 12h 39m
Length of Day
11h 52m
Full, 97% of the Moon is Illuminated
Oct 1
Full
Oct 8
Last Quarter
Oct 15
New
Oct 21
First Quarter
Oct 29
Full

Hourly Weather History & Observations

Time (MST) Temp. Heat Index Dew Point Humidity Pressure Visibility Wind Dir Wind Speed Gust Speed Precip Events Conditions
3:53 AM 75.2 °F - 71.6 °F 89% 29.72 in 10.0 mi East 6.9 mph - N/A   Clear
4:40 AM 77.0 °F - 71.6 °F 83% 29.73 in 10.0 mi ESE 5.8 mph - N/A   Clear
5:43 AM 75.2 °F - 69.8 °F 83% 29.75 in 10.0 mi Calm Calm - N/A   Clear
6:45 AM 78.8 °F - 73.4 °F 83% 29.76 in 10.0 mi NE 3.5 mph - N/A   Clear
7:43 AM 82.4 °F 88.2 °F 73.4 °F 74% 29.78 in 10.0 mi East 9.2 mph - N/A   Clear
7:50 AM 82 °F - 74 °F 69% 29.80 in 12 mi ENE 11.2 mph - -  
8:42 AM 86.0 °F 93.4 °F 73.4 °F 66% 29.79 in 10.0 mi ESE 10.4 mph - N/A   Partly Cloudy
9:46 AM 89.6 °F 98.2 °F 73.4 °F 59% 29.78 in 10.0 mi ENE 4.6 mph - N/A   Clear
10:45 AM 93.2 °F 100.5 °F 71.6 °F 49% 29.77 in 10.0 mi ESE 4.6 mph - N/A   Clear
10:50 AM 95 °F - 76 °F 45% 29.79 in 12 mi ESE 4.5 mph - -  
11:42 AM 96.8 °F 103.1 °F 69.8 °F 41% 29.75 in 10.0 mi South 3.5 mph - N/A   Clear
12:43 PM 100.4 °F 103.6 °F 64.4 °F 31% 29.72 in 10.0 mi SSE 2.3 mph - N/A   Clear
1:44 PM 104.0 °F 104.6 °F 59.0 °F 23% 29.69 in 10.0 mi Calm Calm - N/A   Clear
1:50 PM 104 °F - 73 °F 28% 29.71 in 12 mi WSW 11.2 mph - -   Scattered Clouds
2:46 PM 102.2 °F 105.5 °F 64.4 °F 29% 29.67 in 10.0 mi NNW 10.4 mph - N/A   Partly Cloudy
3:50 PM 100.4 °F 102.4 °F 62.6 °F 29% 29.66 in 10.0 mi WSW 6.9 mph - N/A   Partly Cloudy
4:42 PM 100.4 °F 100.2 °F 59.0 °F 25% 29.66 in 10.0 mi West 6.9 mph - N/A   Clear
4:50 PM 100 °F - 82 °F 48% 29.68 in 12 mi WSW 20.1 mph - -  
5:46 PM 95.0 °F 103.2 °F 71.6 °F 47% 29.67 in 10.0 mi West 15.0 mph - N/A   Clear
6:42 PM 89.6 °F 102.2 °F 77.0 °F 66% 29.69 in 10.0 mi WNW 6.9 mph - N/A   Clear
7:43 PM 86.0 °F 95.1 °F 75.2 °F 70% 29.71 in 10.0 mi NW 3.5 mph - N/A   Clear